Regional Weather Roundup
Issued by NWS

Home | Current Version | Previous Version | Graphics & Text | Print | Product List | Glossary On
Versions: 1 2 3 4 5 6 7 8 9 10 11 12 13 14 15 16 17 18 19 20 21 22 23 24 25 26 27
000
ASUS45 KBOU 230007
RWRCO

WEATHER ROUNDUP FOR COLORADO
NATIONAL WEATHER SERVICE DENVER/BOULDER CO
500 PM MST WED FEB 22 2017

NOTE: "FAIR" INDICATES FEW OR NO CLOUDS BELOW 12000 FEET WITH NO
SIGNIFICANT WEATHER AND/OR OBSTRUCTIONS TO VISIBILITY.

COZ001>005-013-030-031-230100-
...NORTHWEST COLORADO...

CITY           SKY/WX    TMP DP  RH WIND       PRES   REMARKS
CRAIG          CLOUDY    36  27  69 N7        29.78F
HAYDEN         CLOUDY    34  27  75 W5        29.77F WCI  30
MEEKER         MOCLDY    42  32  67 NE10      29.72F
MOUNT WERNER   NOT AVBL
STEAMBOAT SPGS FAIR      36  29  75 W3        29.76F
WALDEN         NOT AVBL
$$

COZ006>008-011-230100-
...WEST CENTRAL VALLEYS...

CITY           SKY/WX    TMP DP  RH WIND       PRES   REMARKS
GRAND JUNCTION PTSUNNY   61  27  27 NW8       29.65F
MONTROSE       FAIR      56  22  26 SW14G24   29.74F
EAGLE          MOCLDY    46  28  49 E7        29.73F
RIFLE          MOCLDY    55  27  34 W13       29.68F
DELTA          FAIR      63  18  17 SW23G31   29.70F
NUCLA          FAIR      55  14  19 SW18G29   29.78F
$$

COZ017>023-064>068-230100-
...SOUTHWEST COLORADO...

CITY           SKY/WX    TMP DP  RH WIND       PRES   REMARKS
DURANGO        FAIR      52  23  32 SW7       29.86F
CORTEZ         FAIR      58  24  27 SW17      29.80F
PAGOSA SPRINGS FAIR      47  28  47 SW5       29.90F
TELLURIDE      NOT AVBL
WOLF CREEK PAS CLOUDY    25  25 100 SW21G37   30.02S WCI  10
$$

COZ009-010-012-014-032>034-037-058>063-230100-
...CENTRAL COLORADO...

CITY           SKY/WX    TMP DP  RH WIND       PRES   REMARKS
ASPEN          CLOUDY    43  26  51 S9        29.76F
BUENA VISTA    FAIR      47   9  22 S10G16    29.80S
COPPER MTN     FAIR      32  12  43 SW9       29.90F WCI  24
BERTHOUD PASS  MOCLDY    23  14  68 SW6       29.90S WCI  16
COTTONWOOD PAS FAIR      41   1  19 SW6G21    29.86S
GUNNISON       FAIR      44  19  36 SW5       29.81F
KREMMLING      RAIN      45  32  61 S14G35    29.78R
LEADVILLE      CLOUDY    34  14  43 CALM      29.83F
MONARCH PASS   FAIR      27  14  59 SW21G26   30.03F WCI  13
SALIDA         FAIR      51  13  22 W8G17     29.88F
SUNLIGHT       NOT AVBL
WILKERSON PASS FAIR      34   3  27 S9G24     29.91F WCI  26
$$

COZ069>075-230100-
...SAN LUIS VALLEY/SANGRE DE CRISTO MOUNTAINS...

CITY           SKY/WX    TMP DP  RH WIND       PRES   REMARKS
ALAMOSA        FAIR      45  28  51 SW15G22   29.89F
LA VETA PASS   FAIR      34  19  55 NE21G45   29.93F WCI  22
SAGUACHE       FAIR      50  14  23 W16G28    29.84S
$$

COZ035-036-038>040-230100-
...NORTHERN COLORADO FRONT RANGE...

CITY           SKY/WX    TMP DP  RH WIND       PRES   REMARKS
DENVER INTL AP FAIR      51  19  28 NE17      29.73S
DMNS CITY PARK   N/A     53  18  25 NE10G23   29.73S
AURORA         PTCLDY    53  20  27 NE15G21   29.73S
FRONT RANGE AP PTCLDY    54  19  26 NE17      29.74
ERIE MUNI ARPT FAIR      55  17  23 E13G18    29.74F
BOULDER MUN AP FAIR      54  23  30 E7        29.74S
CENTENNIAL     FAIR      52  19  27 E13G20    29.73S
BROOMFIELD     MOCLDY    54  19  26 E13       29.75F
FORT COLLINS   FAIR      50  24  36 NE20G25   29.77R
LONGMONT       FAIR      57  21  24 E14G20    29.76S
$$

COZ041-046-047-076>085-087-088-230100-
...PIKES PEAK/PALMER DIVIDE AND SOUTHERN FOOTHILLS...

CITY           SKY/WX    TMP DP  RH WIND       PRES   REMARKS
COLO. SPRINGS  FAIR      61   9  12 S22       29.71F
A. F. ACADEMY  FAIR      59  -3   8 W15       29.71F
SCHRIEVER AFB  FAIR      60   9  13 S20G29    29.72F
ELLICOTT       FAIR     N/A N/A N/A SW23G29   29.71F
FALCON         FAIR      58   9  14 S17       29.75F
FORT CARSON    FAIR      62  10  12 S20G28    29.69S
LIMON          FAIR      55  19  24 E14       29.72F
MONUMENT HILL  FAIR      54   5  14 W15G22    29.76F
TRINIDAD       FAIR      62   5  10 W28G35    29.80S
$$

COZ042>045-048>051-090-091-230100-
...NORTHEAST COLORADO...

CITY           SKY/WX    TMP DP  RH WIND       PRES   REMARKS
GREELEY ARPT   FAIR      50  24  36 NE16      29.78R
AKRON          FAIR      55  17  22 NE9       29.76S
BURLINGTON     FAIR      60  23  24 E12       29.74F
WRAY           NOT AVBL
STERLING       FAIR      55  19  24 N7        29.76R
HOLYOKE        FAIR      61  16  17 NE9       29.76R HAZE
FORT MORGAN    FAIR      54  15  21 N13       29.76S
$$

COZ086-089-092>099-230100-
...SOUTHEAST COLORADO...

CITY           SKY/WX    TMP DP  RH WIND       PRES   REMARKS
PUEBLO         FAIR      67  18  15 SW30G38   29.68S
LA JUNTA       FAIR      69  16  13 SW28G37   29.68F
LAMAR          FAIR      66  24  20 SE15      29.67F
SPRINGFIELD      N/A     67  22  18 VRB3      29.73S
$$




USA.gov is the U.S. government's official web portal to all federal, state and local government web resources and services.